sat.trackr.live / text

‹ back to catalog

STARLINK-32364

NORAD 61622 · 2024-191B

PAYLOAD ACTIVE UNKNOWN

§ Identity

Operator
Country
US
Launch date
2024-10-23
Launch site
AFETR
Launch vehicle
Mass (kg)
RCS (m²)

Purposes: comms

External: N2YO · Heavens-Above · Gunter

§ Orbital elements

Epoch: 2026-09-21T18:08:46.328064Z

Period
94.27 min
Inclination
43.0016°
Eccentricity
0.0001421
Mean motion
15.27578388 rev/d
Perigee alt
482.1 km
Apogee alt
484.0 km
Semi-major
6,861.2 km
B*
2.6666e-5
RAAN
127.1031°
Arg perigee
275.6384°
Mean anomaly
84.4306°
Rev number
10,752

§ Raw data

STARLINK-323641 61622U 24191B   26264.75609176  .00000472  00000+0  26666-4 0  99972 61622  43.0016 127.1031 0001421 275.6384  84.4306 15.27578388107525

JSON: /api/v1/satellites/61622 · /tle

For live sub-satellite position, see the globe view (requires WebGL).

§ Visibility from observer

Set your observer location to see the next 7 days of passes ≥ 10°. The values pass through the URL so the page stays shareable.

No JS? Fill the form by hand. The geolocation button needs JavaScript.